BEIDOU-3 IGSO-1 (C38)

Last updated on Dec. 12, 2019, 4:25 a.m. UTC

1 44204U 19023A   19345.56739549 -.00000224  00000-0  10000-3 0  9992
2 44204  55.2265  63.0101 0015538 188.3091 146.2520  1.00294158  2499
UTC
Height (km)
Latitude
Longitude
Inclination
Orbital Period
UTC large
Height (km)
Speed (km/s)
/
Latitude / Longitude
Inclination (degrees)
Orbital Period (minutes)
Azimuth
Elevation
Range (km)
Doppler Factor
iOS Compass Heading
iOS Angle

Next 30 passes for location: Hong Kong

Rise time Rise Azimuth (degrees) Set time Set Azimuth (degrees) Duration Max altitude (degrees)

No matching passes for this satellites